Location: ????? ???????
(35.8842°N, 23.2913°E)
Time: 10:25:22
(UTC+00:00)

Daily predictions for brighter satellites

Satellite Brightness Start Highest point End
(mag) Time Altitude Azimuth Time Altitude Azimuth Time Altitude Azimuth
SJ-12 4.3 15:41:17 10° SE 15:44:44 34° ENE 15:48:11 10° N
IGS 5A 3.4 15:40:57 10° S 15:44:55 86° WSW 15:48:56 10° NNW
COSMO-SKYMED 1 4.0 15:47:20 10° NE 15:49:59 17° E 15:52:39 10° SE
SL-4 R/B 3.7 15:47:29 10° WNW 15:50:36 32° SW 15:53:51 10° SSE
Cosmos 540 Rocket 4.2 15:48:12 10° N 15:52:43 30° ENE 15:57:11 10° SE
Cosmos 1400 Rocket 4.2 15:50:26 10° SE 15:53:00 17° E 15:55:34 10° NE
CORIOLIS 4.1 15:49:15 10° SSE 15:54:36 79° ENE 15:59:58 10° N
Cosmos 1763 Rocket 3.8 15:53:09 10° N 15:58:04 41° ENE 16:02:52 10° SE
Cosmos 1975 Rocket 3.0 15:54:47 10° N 15:59:09 75° E 16:03:31 10° SSE
IRS-1C 4.1 15:54:42 10° SSE 15:59:58 67° ENE 16:05:15 10° N
Cosmos 2151 Rocket 4.4 15:56:59 10° SSE 16:00:50 29° E 16:04:44 10° NNE
SMAP 3.1 15:56:31 10° SSE 16:01:09 87° ENE 16:05:49 10° NNW
Cosmos 1812 2.3 15:58:30 10° SSE 16:01:16 44° E 16:04:03 10° NNE
OAO 2 Rocket 3.4 15:57:04 10° W 16:02:04 83° S 16:06:56 11° E
Cosmos 44 Rocket 3.4 15:57:25 10° SSW 16:02:07 78° WNW 16:07:00 10° NNE
Cosmos 1943 Rocket 2.3 15:58:19 10° SSW 16:03:56 81° WNW 16:09:33 10° NNE
OAO 3 Rocket 3.2 16:00:03 10° W 16:04:44 77° S 16:08:48 13° E
Cosmos 2058 3.6 16:07:12 10° NNE 16:10:41 29° ENE 16:14:09 10° SE
Okean 1 Rocket 4.2 16:07:31 10° SE 16:11:00 23° E 16:14:29 10° NE
Aureole 3 Rocket 2.1 16:08:30 10° S 16:11:37 70° E 16:14:39 10° NNE
Cosmos 2278 Rocket 2.5 16:06:45 10° SSW 16:12:22 72° WNW 16:18:02 10° NNE
CZ-2D R/B 4.3 16:09:17 10° SE 16:12:47 28° ENE 16:16:21 10° NNE
Landsat 7 3.7 16:08:59 10° SSE 16:13:37 84° ENE 16:18:18 10° N
Cosmos 2082 Rocket 3.0 16:09:44 10° N 16:14:32 28° ENE 16:19:19 10° ESE
SKYMED 2 3.7 16:11:40 10° NNE 16:15:56 52° E 16:20:09 10° S
Cosmos 1513 Rocket 4.5 16:13:24 10° S 16:19:43 81° E 16:26:08 10° N
Helios 1A Rocket 3.0 16:18:18 13° NE 16:20:55 36° E 16:24:04 10° SSE
Cosmos 2369 Rocket 3.8 16:20:09 10° SE 16:22:29 14° ESE 16:22:29 14° ESE
Cosmos 2251 Rocket 3.5 16:19:24 10° SSW 16:24:40 88° WNW 16:30:00 10° NNE
Cosmos 371 Rocket 3.4 16:25:41 10° S 16:30:19 52° ESE 16:34:20 14° NNE
YAOGAN 1 3.1 16:27:27 10° SE 16:31:16 34° ENE 16:35:07 10° N
Cosmos 304 Rocket 3.8 16:26:59 10° S 16:31:35 56° ESE 16:35:37 14° NNE
H-2A R/B 3.2 16:27:41 10° WSW 16:32:02 21° SSW 16:34:06 10° SSE
SJ 16-02 1.2 16:30:40 10° S 16:34:58 79° ESE 16:39:07 11° NNE
ATLAS 2AS CENTAUR R/B 4.5 16:35:58 10° NNE 16:37:55 11° NNE 16:38:09 11° NNE
Nadezhda 4 Rocket 4.1 16:33:02 10° N 16:39:09 53° E 16:45:10 10° SSE
BREEZE M DEB (TANK) 3.4 16:37:14 10° SSW 16:40:01 25° SSE 16:40:01 25° SSE
ARIANE 5 R/B 3.7 16:37:47 10° S 16:42:30 44° W 16:47:15 10° NNW
Resurs 1-3 3.8 16:38:58 10° SE 16:43:02 43° ENE 16:47:06 10° N
Cosmos 1656 Rocket 3.8 16:38:48 10° S 16:44:04 49° ESE 16:47:09 24° NE
COSMOS 2406 4.0 16:42:15 10° N 16:47:01 28° ENE 16:47:01 28° ENE
USA 215 3.2 16:42:25 10° SE 16:48:57 89° SW 16:55:32 10° NW
Cosmos 468 Rocket 3.8 16:46:08 10° NNW 16:51:18 68° ENE 16:56:23 10° SSE
Cosmos 1862 2.9 16:47:53 10° N 16:51:30 68° E 16:55:07 10° SSE
Iridium 45 4.3 16:48:43 10° S 16:52:15 65° E 16:52:31 61° ENE
MOS 1 Rocket 3.8 16:51:23 10° S 16:55:32 54° W 16:59:52 10° NNW
Okean 2 Rocket 3.1 16:51:12 10° S 16:55:36 81° W 16:59:59 10° N
Cosmos 676 Rocket 4.0 16:53:23 10° SSW 16:58:41 86° WNW 17:03:01 16° NNE
Cosmos 1428 Rocket 4.4 16:52:39 10° N 16:58:55 64° E 17:05:08 10° SSE
Cosmos 489 Rocket 4.5 16:54:41 10° N 17:00:48 55° ENE 17:06:51 10° SSE
H-II Stage 2 3.5 16:47:02 10° WSW 17:00:51 44° SSW 17:02:47 28° SE
Cosmos 1536 Rocket 3.4 16:56:34 10° N 17:01:00 89° E 17:05:21 10° S
ATLAS 5 CENTAUR R/B 4.0 17:01:39 10° WNW 17:05:59 29° WSW 17:11:06 10° S
Meteor 2-3 Rocket 3.8 17:01:37 10° N 17:07:06 48° ENE 17:07:28 47° E
OceanSat 1 rocket 4.5 17:04:18 10° SSE 17:09:09 79° ENE 17:14:00 10° N
USA 281 4.5 17:15:07 23° NNE 17:15:07 23° NNE 17:18:18 10° N
RESURS DK-1 3.8 17:10:32 10° NW 17:14:13 36° WSW 17:17:52 10° S
SPOT 1/Viking Rocket 4.1 17:09:20 10° S 17:14:23 57° W 17:19:29 10° NNW
BlueWalker 3 2.3 17:11:33 10° SW 17:14:33 57° WSW 17:14:33 57° WSW
Cosmos 968 Rocket 3.3 17:15:42 10° S 17:20:39 71° ESE 17:20:39 71° ESE
Cosmos 1634 Rocket 3.9 17:15:32 10° S 17:21:41 61° E 17:22:50 52° NE
COSMO-SKYMED 1 4.1 17:21:41 10° N 17:25:21 32° WNW 17:29:00 10° SW
DELTA 2 R/B (1) 3.4 17:21:51 10° WSW 17:27:24 86° SSE 17:27:39 81° E
OAO 2 Rocket 4.0 17:41:36 10° W 17:45:42 50° SW 17:45:42 50° SW
OAO 3 Rocket 4.3 17:43:08 10° W 17:46:13 40° W 17:46:13 40° W
Cosmos 1092 Rocket 4.2 17:49:43 10° N 18:02:36 - S 17:54:59 63° NNW
Cosmos 2082 Rocket 3.6 17:53:32 10° NW 17:58:34 35° WSW 18:03:36 10° SSW
Cosmos 2026 Rocket 4.4 17:56:24 10° NNW 18:02:23 58° W 18:08:24 10° S
Cosmos 2369 Rocket 3.2 18:00:48 10° SSW 18:04:20 39° SW 18:04:20 39° SW
Cosmos 2344 4.3 18:40:20 10° NW 18:47:32 67° NW 18:47:32 67° NW
